When you browse on this site, cookies collect data to enhance your experience and personalize the content and advertising you see.
Visit our Privacy Policy to learn more. By continuing to use the site, you agree to this use of cookies and data.
  • Em Portugal
  • Lista de países
  • Para 7 dias
  • Temperatura da água
  • Mapas de satélite
  • Mapa do tempo
  • Widgets de tempo
  • user-avatar
    Iniciar Sessão

    Previsão horária em Halaleevka

    Hoje, 21 Abril, Domingo

    Tempo Temperatura Precipitação Vento Pressão Humidade
    00:00 +5°C° 0 mm 2 m/s 748 mmHg 85%
    01:00 +5°C° 0 mm 2 m/s 748 mmHg 87%
    02:00 +4°C° 0 mm 2 m/s 748 mmHg 91%
    03:00 +3°C° 0 mm 3 m/s 748 mmHg 92%
    04:00 +2°C° 0 mm 3 m/s 748 mmHg 93%
    05:00 +2°C° 0 mm 3 m/s 747 mmHg 94%
    06:00 +4°C° 0 mm 4 m/s 748 mmHg 88%
    07:00 +5°C° 0 mm 4 m/s 748 mmHg 82%
    08:00 +7°C° 0 mm 4 m/s 748 mmHg 76%
    09:00 +10°C° 0 mm 4 m/s 748 mmHg 68%
    10:00 +11°C° 0 mm 4 m/s 748 mmHg 60%
    11:00 +13°C° 0 mm 4 m/s 748 mmHg 52%
    12:00 +14°C° 0.1 mm 4 m/s 748 mmHg 48%
    13:00 +15°C° 0.1 mm 4 m/s 748 mmHg 45%
    14:00 +16°C° 0 mm 5 m/s 748 mmHg 40%
    15:00 +15°C° 0 mm 4 m/s 749 mmHg 44%
    16:00 +14°C° 0 mm 4 m/s 749 mmHg 48%
    17:00 +14°C° 0 mm 3 m/s 749 mmHg 52%
    18:00 +13°C° 0 mm 3 m/s 749 mmHg 55%
    19:00 +11°C° 0 mm 3 m/s 749 mmHg 59%
    20:00 +10°C° 0 mm 2 m/s 750 mmHg 62%
    21:00 +9°C° 0 mm 2 m/s 750 mmHg 65%
    22:00 +8°C° 0 mm 2 m/s 750 mmHg 67%
    23:00 +8°C° 0 mm 2 m/s 751 mmHg 70%

    Amanhã, 22 Abril, Segunda-feira

    Tempo Temperatura Precipitação Vento Pressão Humidade
    00:00 +7°C° 0 mm 2 m/s 751 mmHg 71%
    01:00 +7°C° 0 mm 2 m/s 751 mmHg 72%
    02:00 +6°C° 0 mm 2 m/s 751 mmHg 74%
    03:00 +7°C° 0 mm 1 m/s 751 mmHg 74%
    04:00 +7°C° 0 mm 1 m/s 752 mmHg 74%
    05:00 +7°C° 0 mm 1 m/s 752 mmHg 74%
    06:00 +9°C° 0 mm 1 m/s 752 mmHg 68%
    07:00 +11°C° 0 mm 1 m/s 753 mmHg 62%
    08:00 +13°C° 0 mm 1 m/s 753 mmHg 55%
    09:00 +14°C° 0 mm 2 m/s 753 mmHg 48%
    10:00 +15°C° 0 mm 2 m/s 753 mmHg 41%
    11:00 +16°C° 0 mm 2 m/s 753 mmHg 34%
    12:00 +16°C° 0 mm 2 m/s 753 mmHg 35%
    13:00 +16°C° 0 mm 2 m/s 753 mmHg 36%
    14:00 +16°C° 0 mm 2 m/s 753 mmHg 37%
    15:00 +16°C° 0 mm 1 m/s 753 mmHg 38%
    16:00 +16°C° 0 mm 1 m/s 753 mmHg 39%
    17:00 +16°C° 0 mm 1 m/s 753 mmHg 41%
    18:00 +15°C° 0 mm 1 m/s 753 mmHg 43%
    19:00 +13°C° 0 mm 1 m/s 753 mmHg 45%
    20:00 +11°C° 0 mm 0 m/s 753 mmHg 48%
    21:00 +10°C° 0 mm 0 m/s 753 mmHg 50%
    22:00 +9°C° 0 mm 0 m/s 754 mmHg 52%
    23:00 +8°C° 0 mm 0 m/s 754 mmHg 53%

    Depois de amanhã, 23 Abril, Terça-feira

    Tempo Temperatura Precipitação Vento Pressão Humidade
    00:00 +8°C° 0 mm 0 m/s 754 mmHg 55%
    01:00 +9°C° 0 mm 1 m/s 754 mmHg 57%
    02:00 +8°C° 0 mm 1 m/s 754 mmHg 58%
    03:00 +8°C° 0 mm 1 m/s 755 mmHg 60%
    04:00 +8°C° 0 mm 1 m/s 755 mmHg 62%
    05:00 +8°C° 0 mm 1 m/s 755 mmHg 63%
    06:00 +10°C° 0 mm 1 m/s 755 mmHg 60%
    07:00 +10°C° 0 mm 2 m/s 755 mmHg 58%
    08:00 +13°C° 0 mm 2 m/s 755 mmHg 55%
    09:00 +14°C° 0 mm 2 m/s 755 mmHg 50%
    10:00 +16°C° 0 mm 2 m/s 755 mmHg 45%
    11:00 +17°C° 0 mm 2 m/s 755 mmHg 40%
    12:00 +17°C° 0 mm 2 m/s 755 mmHg 39%
    13:00 +18°C° 0 mm 1 m/s 755 mmHg 37%
    14:00 +19°C° 0 mm 1 m/s 755 mmHg 35%
    15:00 +19°C° 0 mm 1 m/s 754 mmHg 37%
    16:00 +18°C° 0 mm 1 m/s 754 mmHg 39%
    17:00 +18°C° 0 mm 1 m/s 754 mmHg 40%
    18:00 +16°C° 0 mm 1 m/s 754 mmHg 43%
    19:00 +14°C° 0 mm 1 m/s 754 mmHg 47%
    20:00 +12°C° 0 mm 1 m/s 754 mmHg 50%
    21:00 +12°C° 0 mm 1 m/s 754 mmHg 51%
    22:00 +11°C° 0 mm 1 m/s 754 mmHg 53%
    23:00 +10°C° 0 mm 1 m/s 754 mmHg 54%

    24 Abril, Quarta-feira

    Tempo Temperatura Precipitação Vento Pressão Humidade
    00:00 +10°C° 0 mm 1 m/s 754 mmHg 55%
    01:00 +9°C° 0 mm 0 m/s 754 mmHg 57%
    02:00 +8°C° 0 mm 0 m/s 754 mmHg 58%
    03:00 +8°C° 0 mm 0 m/s 755 mmHg 59%
    04:00 +8°C° 0 mm 0 m/s 755 mmHg 60%
    05:00 +7°C° 0 mm 0 m/s 755 mmHg 61%
    06:00 +9°C° 0 mm 0 m/s 755 mmHg 56%
    07:00 +11°C° 0 mm 0 m/s 755 mmHg 52%
    08:00 +13°C° 0 mm 0 m/s 755 mmHg 48%
    09:00 +16°C° 0 mm 1 m/s 755 mmHg 44%
    10:00 +18°C° 0 mm 1 m/s 755 mmHg 40%
    11:00 +19°C° 0 mm 1 m/s 755 mmHg 36%
    12:00 +19°C° 0 mm 2 m/s 755 mmHg 36%
    13:00 +19°C° 0 mm 2 m/s 754 mmHg 35%
    14:00 +19°C° 0 mm 2 m/s 754 mmHg 34%
    15:00 +19°C° 0 mm 2 m/s 754 mmHg 36%
    16:00 +19°C° 0 mm 2 m/s 754 mmHg 39%
    17:00 +19°C° 0 mm 2 m/s 753 mmHg 41%
    18:00 +17°C° 0 mm 2 m/s 753 mmHg 45%
    19:00 +15°C° 0 mm 1 m/s 753 mmHg 49%
    20:00 +13°C° 0 mm 1 m/s 753 mmHg 53%
    21:00 +13°C° 0 mm 1 m/s 753 mmHg 55%
    22:00 +12°C° 0 mm 1 m/s 754 mmHg 56%
    23:00 +12°C° 0 mm 1 m/s 754 mmHg 58%

    25 Abril, Quinta-feira

    Tempo Temperatura Precipitação Vento Pressão Humidade
    00:00 +11°C° 0 mm 1 m/s 754 mmHg 59%
    01:00 +11°C° 0 mm 1 m/s 754 mmHg 60%
    02:00 +10°C° 0 mm 1 m/s 754 mmHg 61%
    03:00 +10°C° 0 mm 1 m/s 754 mmHg 63%
    04:00 +10°C° 0 mm 1 m/s 754 mmHg 64%
    05:00 +9°C° 0 mm 1 m/s 754 mmHg 66%
    06:00 +11°C° 0 mm 1 m/s 754 mmHg 62%
    07:00 +13°C° 0 mm 2 m/s 754 mmHg 59%
    08:00 +15°C° 0 mm 2 m/s 754 mmHg 55%
    09:00 +16°C° 0 mm 3 m/s 754 mmHg 51%
    10:00 +17°C° 0 mm 3 m/s 754 mmHg 47%
    11:00 +19°C° 0 mm 4 m/s 754 mmHg 42%
    12:00 +19°C° 0 mm 4 m/s 753 mmHg 42%
    13:00 +20°C° 0 mm 4 m/s 753 mmHg 41%
    14:00 +20°C° 0 mm 4 m/s 753 mmHg 40%
    15:00 +20°C° 0 mm 4 m/s 752 mmHg 42%
    16:00 +20°C° 0 mm 3 m/s 752 mmHg 45%
    17:00 +19°C° 0 mm 3 m/s 751 mmHg 47%
    18:00 +18°C° 0 mm 3 m/s 751 mmHg 52%
    19:00 +16°C° 0 mm 3 m/s 751 mmHg 56%
    20:00 +14°C° 0 mm 2 m/s 751 mmHg 61%
    21:00 +12°C° 0 mm 3 m/s 751 mmHg 63%
    22:00 +12°C° 0 mm 3 m/s 751 mmHg 64%
    23:00 +11°C° 0 mm 3 m/s 750 mmHg 66%

    26 Abril, Sexta-feira

    Tempo Temperatura Precipitação Vento Pressão Humidade
    00:00 +11°C° 0 mm 3 m/s 750 mmHg 67%
    01:00 +10°C° 0 mm 3 m/s 750 mmHg 68%
    02:00 +10°C° 0 mm 3 m/s 750 mmHg 69%
    03:00 +9°C° 0 mm 3 m/s 750 mmHg 70%
    04:00 +9°C° 0 mm 3 m/s 750 mmHg 72%
    05:00 +9°C° 0 mm 3 m/s 749 mmHg 73%
    06:00 +11°C° 0 mm 3 m/s 749 mmHg 69%
    07:00 +12°C° 0 mm 4 m/s 749 mmHg 65%
    08:00 +14°C° 0 mm 5 m/s 749 mmHg 60%
    09:00 +16°C° 0 mm 5 m/s 748 mmHg 55%
    10:00 +17°C° 0 mm 6 m/s 748 mmHg 50%
    11:00 +20°C° 0 mm 6 m/s 748 mmHg 45%
    12:00 +20°C° 0 mm 6 m/s 747 mmHg 44%
    13:00 +21°C° 0 mm 6 m/s 747 mmHg 43%
    14:00 +21°C° 0 mm 6 m/s 746 mmHg 42%
    15:00 +21°C° 0 mm 5 m/s 746 mmHg 44%
    16:00 +21°C° 0 mm 4 m/s 745 mmHg 47%
    17:00 +21°C° 0 mm 4 m/s 745 mmHg 50%
    18:00 +19°C° 0 mm 3 m/s 745 mmHg 54%
    19:00 +17°C° 0 mm 3 m/s 745 mmHg 57%
    20:00 +14°C° 0 mm 3 m/s 745 mmHg 61%
    21:00 +13°C° 0 mm 3 m/s 745 mmHg 61%
    22:00 +13°C° 0 mm 3 m/s 745 mmHg 61%
    23:00 +12°C° 0 mm 3 m/s 745 mmHg 60%
    Mostrar mais